LUCH-5V (39727 NORAD) Tracking and Keplerian Element Data

This shows tracking and keplerian element data for the satellite.

Feedback or suggestion? Click here.




ElementValue
Catalog39727
NameLUCH-5V
Epoch Orbit3936
Epoch Day34.70234005
Epoch Year2025
RAAN74.3323
Inclination3.8834
Eccentricity0.0003889
Argument of Perigee244.9644
Mean Anonmoly162.3352
Mean Motion1.00267789
Decay Rate-2.65E-06
L11 39727U 14023A 25034.70234005 -.00000265 00000+0 00000+0 0 9995
L22 39727 3.8834 74.3323 0003889 244.9644 162.3352 1.00267789 39362



Live tracking and technical data element details for LUCH-5V (NORAD 39727). LUCH-5V can be tracked NOW for your location showing map with azimuth and elevation plus other details from your city location.







IsCatalogInMostPopularTable: catalog: 39727, numindb: 546
Update: records affected: 1



GetName: 39727 LUCH-5V

Hit Count: updated at: Thu, 15 May 2025 09:49:41 GMT